Location: Ar Ranvel
(48.3000°N, 4.8833°W)
Time: 00:23:01
(UTC+00:00)

FALCON 9 DEB - Pass Details

Date: 28 October 2021
Orbit: 417 x 427 km, 53.0° (Epoch: 28 November)

Event Time Altitude Azimuth Distance (km) Brightness Sun altitude
Rises 20:03:08 0° 263° (W) 2,396 7.9 -29.7°
Reaches altitude 10° 20:05:17 10° 269° (W) 1,530 6.7 -30.1°
Enters shadow 20:06:03 16° 274° (W) 1,237 6.2 -30.2°
